Location: Eaton
(41.3139°N, 82.0207°W)
Time: 15:39:51
(UTC+00:00)

NOSS 3-1 (A) - Pass Details

Date: 17 June 2021
Orbit: 729 x 1483 km, 63.4° (Epoch: 23 July)

Event Time Altitude Azimuth Distance (km) Brightness Sun altitude
Exits shadow 06:28:32 61° 184° (S) 918 3.0 -23.8°
Maximum altitude 06:29:26 76° 122° (ESE) 855 3.1 -23.8°
Drops below altitude 10° 06:35:27 10° 38° (NE) 2,651 6.7 -23.5°
Sets 06:38:14 0° 37° (NE) 3,714 7.7 -23.3°
